Location: Newark
(48.8519°N, 2.3472°E)
Time: 15:47:00
(UTC+00:00)

ISS - Visible Passes

Search period start: 17 July 2019 00:00
Search period end: 27 July 2019 00:00
Orbit: 409 x 418 km, 51.6° (Epoch: 18 July)

Date Brightness Start Highest point End Pass type
(mag) Time Alt. Az. Time Alt. Az. Time Alt. Az.
17 Jul -2.9 00:18:17 10° WNW 00:21:33 50° N 00:24:47 10° ENE visible
17 Jul -3.8 01:55:07 10° WNW 01:58:26 83° NNE 02:01:46 10° ESE visible
17 Jul -3.9 21:52:05 10° WSW 21:55:23 65° SSE 21:58:42 10° ENE visible
17 Jul -3.0 23:28:54 10° W 23:32:10 52° N 23:35:26 10° ENE visible
18 Jul -3.4 01:05:48 10° WNW 01:09:08 65° NNE 01:12:26 10° E visible
18 Jul -3.3 02:42:37 10° W 02:45:43 36° SSW 02:48:47 10° SE visible
18 Jul -3.5 21:02:57 10° SW 21:06:09 44° SSE 21:09:21 10° ENE visible
18 Jul -3.2 22:39:30 10° W 22:42:48 60° NNW 22:46:07 10° ENE visible
19 Jul -3.1 00:16:29 10° WNW 00:19:46 55° N 00:23:02 10° E visible
19 Jul -3.8 01:53:13 10° WNW 01:56:29 55° SSW 01:59:44 10° SE visible
19 Jul -3.6 21:50:06 10° WSW 21:53:26 74° NNW 21:56:47 10° ENE visible
19 Jul -2.9 23:27:06 10° WNW 23:30:22 50° N 23:33:38 10° E visible
20 Jul -4.0 01:03:52 10° WNW 01:07:12 80° SSW 01:09:03 24° ESE visible
20 Jul -1.4 02:45:52 10° S 02:45:52 10° S 02:41:09 10° W visible
20 Jul -3.9 21:00:45 10° WSW 21:04:07 84° SSE 21:07:27 10° ENE visible
20 Jul -2.9 22:37:42 10° W 22:40:57 50° N 22:44:13 10° ENE visible
21 Jul -3.7 00:14:32 10° WNW 00:17:52 77° NNE 00:17:58 76° NE visible
21 Jul -3.0 21:48:15 10° W 21:51:33 54° N 21:54:49 10° ENE visible
21 Jul -3.4 23:25:11 10° WNW 23:28:30 61° NNE 23:29:21 43° ENE visible
22 Jul -1.1 01:01:58 10° WNW 01:02:07 11° WNW 01:02:07 11° WNW visible
22 Jul -3.3 20:58:48 10° W 21:02:08 63° NNW 21:05:27 10° ENE visible
22 Jul -3.1 22:35:48 10° WNW 22:39:05 53° N 22:41:06 21° ENE visible
23 Jul -1.9 00:12:33 10° WNW 00:13:53 22° WNW 00:13:53 22° WNW visible
23 Jul -2.9 21:46:22 10° WNW 21:49:39 50° N 21:52:54 10° E visible
23 Jul -3.3 23:23:09 10° WNW 23:25:49 53° WNW 23:25:49 53° WNW visible
24 Jul -2.9 20:56:55 10° W 21:00:11 51° N 21:03:28 10° ENE visible
24 Jul -3.6 22:33:46 10° WNW 22:37:07 72° NNE 22:37:49 50° E visible
25 Jul -3.3 21:44:22 10° WNW 21:47:41 59° N 21:49:53 19° E visible
25 Jul -2.0 23:21:08 10° WNW 23:22:41 24° W 23:22:41 24° W visible
26 Jul -3.0 20:54:56 10° WNW 20:58:14 52° N 21:01:30 10° E visible
26 Jul -3.7 22:31:41 10° WNW 22:34:47 65° SW 22:34:47 65° SW visible
